Hourly Data Report for September 11, 2017

All times are specified in Local Standard Time (LST). Add 1 hour to adjust for Daylight Saving Time where and when it is observed.

ARCTIC BAY CS
NUNAVUT

72°59'34.000" N
85°00'44.000" W
10.00 m
2400404
71592
XAT

Download Data

Hourly Data (September 2017)
Hourly Data Report for September 11, 2017
Temp Definition
°C
Dew Point Temp Definition
°C
Rel Hum Definition
%
Wind Dir Definition
10's deg

Wind Spd Definition
km/h
Visibility Definition
km
Stn Press Definition
kPa
Hmdx Definition


Wind Chill Definition


Weather Definition


TIME
00:00 -0.3 -1.9 89 7 11   100.15   -4 LegendNANA
01:00 0.2 -2.2 84 7 11   100.12     LegendNANA
02:00 0.4 -2.2 83 7 12   100.13     LegendNANA
03:00 0.3 -1.7 87 8 6   100.15     LegendNANA
04:00 0.1 -1.3 90 5 5   100.21     LegendNANA
05:00 -0.1 -1.0 93 36 3   100.26   -1 LegendNANA
06:00 -0.2 -0.7 96 6 1   100.29   -1 LegendNANA
07:00 -0.1 -0.6 97 35 3   100.37   -1 LegendNANA
08:00 0.1 -0.4 96 28 4   100.41     LegendNANA
09:00 0.6 -0.1 95 30 8   100.47     LegendNANA
10:00 0.8 -0.8 90 31 6   100.49     LegendNANA
11:00 1.5 -0.5 86 30 13   100.52     LegendNANA
12:00 1.8 -0.9 82 28 15   100.54     LegendNANA
13:00 1.9 -1.2 80 28 13   100.60     LegendNANA
14:00 2.1 -2.6 71 32 4   100.63     LegendNANA
15:00 1.8 -1.8 77 29 14   100.67     LegendNANA
16:00 1.5 -2.4 75 33 16   100.73     LegendNANA
17:00 1.4 -2.2 77 27 11   100.79     LegendNANA
18:00 1.3 -2.2 78 32 11   100.83     LegendNANA
19:00 0.6 -2.6 80 34 10   100.86     LegendNANA
20:00 -0.5 -3.8 79 7 12   100.93   -4 LegendNANA
21:00 -1.0 -3.4 84 2 5   100.96   -3 LegendNANA
22:00 -0.2 -3.3 80 5 9   100.97   -3 LegendNANA
23:00 -0.9 -3.8 81 7 9   100.98   -4 LegendNANA

Notes on Data Quality.

Legend

  • E = Estimated
  • M = Missing
  • NA = Not Available
  • ‡ = Partner data that is not subject to review by the National Climate Archives
Date modified: